| time (UTC) | temp C | wind direction | speed KPH | gust KPH | rain 1hr cm | rain 24hr cm | rain mn cm | humidity % | barometer mb |
| 20260507161244 | 20 | 157 | 1.6 | 6.4 | 0.00 | 0.03 | 0.03 | 67 | 1017.3 |
| 20260507160738 | 20 | 151 | 3.2 | 8.0 | 0.00 | 0.03 | 0.03 | 68 | 1017.4 |
| 20260507160232 | 20 | 196 | 3.2 | 8.0 | 0.00 | 0.03 | 0.03 | 67 | 1017.4 |
| 20260507155726 | 20 | 115 | 1.6 | 8.0 | 0.00 | 0.03 | 0.03 | 67 | 1017.5 |
| 20260507155220 | 20 | 138 | 1.6 | 4.8 | 0.00 | 0.03 | 0.03 | 67 | 1017.3 |
| 20260507154714 | 20 | 130 | 1.6 | 4.8 | 0.00 | 0.03 | 0.03 | 65 | 1017.3 |
| 20260507154208 | 20 | 129 | 0.0 | 3.2 | 0.00 | 0.03 | 0.03 | 65 | 1017.3 |
| 20260507153922 | 20 | 130 | 1.6 | 3.2 | 0.00 | 0.03 | 0.03 | 66 | 1017.5 |
| 20260507153156 | 20 | 129 | 3.2 | 4.8 | 0.00 | 0.03 | 0.03 | 68 | 1017.5 |
| 20260507152651 | 20 | 189 | 1.6 | 4.8 | 0.00 | 0.03 | 0.03 | 67 | 1017.7 |
| 20260507152143 | 20 | 217 | 1.6 | 6.4 | 0.00 | 0.03 | 0.03 | 65 | 1017.6 |
| 20260507151638 | 20 | 204 | 1.6 | 6.4 | 0.00 | 0.03 | 0.03 | 65 | 1017.7 |
| 20260507151132 | 20 | 237 | 1.6 | 6.4 | 0.00 | 0.03 | 0.03 | 65 | 1017.6 |
| 20260507150626 | 20 | 244 | 1.6 | 6.4 | 0.00 | 0.03 | 0.03 | 65 | 1017.7 |
| 20260507150119 | 20 | 232 | 1.6 | 6.4 | 0.00 | 0.03 | 0.03 | 65 | 1017.6 |
| 20260507145614 | 20 | 246 | 3.2 | 8.0 | 0.00 | 0.03 | 0.03 | 65 | 1017.5 |
| 20260507145108 | 20 | 254 | 1.6 | 8.0 | 0.00 | 0.03 | 0.03 | 65 | 1017.5 |
| 20260507144601 | 20 | 210 | 1.6 | 4.8 | 0.00 | 0.03 | 0.03 | 65 | 1017.6 |
| 20260507144056 | 20 | 218 | 3.2 | 8.0 | 0.00 | 0.03 | 0.03 | 65 | 1017.7 |
| 20260507143550 | 20 | 264 | 3.2 | 9.7 | 0.00 | 0.03 | 0.03 | 64 | 1017.7 |
| 20260507143043 | 20 | 240 | 3.2 | 8.0 | 0.00 | 0.03 | 0.03 | 63 | 1017.6 |
| 20260507142538 | 20 | 257 | 4.8 | 8.0 | 0.00 | 0.03 | 0.03 | 64 | 1017.6 |
| 20260507142524 | 20 | 252 | 4.8 | 8.0 | 0.00 | 0.03 | 0.03 | 62 | 1017.6 |
| 20260507141525 | 20 | 259 | 6.4 | 8.0 | 0.00 | 0.03 | 0.03 | 61 | 1017.6 |
| 20260507141235 | 20 | 248 | 4.8 | 8.0 | 0.00 | 0.03 | 0.03 | 61 | 1017.5 |
| 20260507140511 | 21 | 266 | 4.8 | 8.0 | 0.00 | 0.03 | 0.03 | 61 | 1017.5 |
| 20260507140006 | 21 | 297 | 4.8 | 8.0 | 0.00 | 0.03 | 0.03 | 62 | 1017.4 |
| 20260507135500 | 20 | 283 | 4.8 | 9.7 | 0.00 | 0.03 | 0.03 | 63 | 1017.4 |
| 20260507134953 | 20 | 266 | 3.2 | 9.7 | 0.00 | 0.03 | 0.03 | 62 | 1017.4 |
| 20260507134447 | 20 | 259 | 4.8 | 8.0 | 0.00 | 0.03 | 0.03 | 66 | 1017.4 |
| 20260507133944 | 20 | 278 | 4.8 | 9.7 | 0.00 | 0.03 | 0.03 | 70 | 1017.4 |
| 20260507133444 | 20 | 238 | 4.8 | 9.7 | 0.00 | 0.03 | 0.03 | 70 | 1017.4 |
| 20260507133300 | 20 | 228 | 3.2 | 8.0 | 0.00 | 0.03 | 0.03 | 70 | 1017.4 |
| 20260507133146 | 20 | 266 | 3.2 | 8.0 | 0.00 | 0.03 | 0.03 | 74 | 1017.3 |
| 20260507131945 | 20 | 292 | 3.2 | 8.0 | 0.00 | 0.03 | 0.03 | 76 | 1017.4 |
| 20260507131442 | 20 | 277 | 4.8 | 8.0 | 0.00 | 0.03 | 0.03 | 75 | 1017.5 |
| 20260507130940 | 19 | 256 | 6.4 | 9.7 | 0.00 | 0.03 | 0.03 | 76 | 1017.6 |
| 20260507130440 | 19 | 250 | 6.4 | 11.3 | 0.00 | 0.03 | 0.03 | 74 | 1017.6 |
| 20260507125942 | 20 | 275 | 4.8 | 11.3 | 0.00 | 0.03 | 0.03 | 72 | 1017.7 |
| 20260507125439 | 20 | 274 | 3.2 | 8.0 | 0.00 | 0.03 | 0.03 | 71 | 1017.7 |
| 20260507124938 | 20 | 269 | 3.2 | 8.0 | 0.00 | 0.03 | 0.03 | 62 | 1017.7 |
| 20260507124434 | 20 | 5 | 1.6 | 8.0 | 0.00 | 0.03 | 0.03 | 63 | 1017.5 |
| 20260507123936 | 20 | 26 | 0.0 | 6.4 | 0.00 | 0.03 | 0.03 | 70 | 1017.4 |
| 20260507123435 | 20 | 110 | 0.0 | 3.2 | 0.00 | 0.03 | 0.03 | 70 | 1017.7 |
| 20260507123153 | 20 | 245 | 1.6 | 4.8 | 0.00 | 0.03 | 0.03 | 72 | 1018.0 |
| 20260507122430 | 20 | 245 | 3.2 | 6.4 | 0.00 | 0.03 | 0.03 | 73 | 1018.2 |
| 20260507121928 | 20 | 245 | 3.2 | 8.0 | 0.00 | 0.03 | 0.03 | 74 | 1018.4 |
| 20260507121426 | 20 | 221 | 3.2 | 8.0 | 0.00 | 0.03 | 0.03 | 73 | 1018.5 |
| 20260507120924 | 19 | 299 | 1.6 | 3.2 | 0.00 | 0.03 | 0.03 | 74 | 1018.6 |
| 20260507120641 | 19 | 299 | 0.0 | 1.6 | 0.00 | 0.03 | 0.03 | 74 | 1018.6 |
| 20260507120412 | 19 | 299 | 0.0 | 4.8 | 0.00 | 0.03 | 0.03 | 74 | 1018.6 |
| 20260507115416 | 19 | 299 | 1.6 | 4.8 | 0.00 | 0.03 | 0.03 | 74 | 1018.6 |
| 20260507114910 | 19 | 299 | 1.6 | 4.8 | 0.03 | 0.03 | 0.03 | 74 | 1018.7 |
| 20260507114636 | 19 | 299 | 3.2 | 6.4 | 0.03 | 0.03 | 0.03 | 74 | 1018.8 |
| 20260507113852 | 19 | 297 | 3.2 | 6.4 | 0.03 | 0.03 | 0.03 | 73 | 1019.0 |
| 20260507113346 | 19 | 278 | 1.6 | 3.2 | 0.03 | 0.03 | 0.03 | 72 | 1018.9 |
| 20260507113100 | 19 | 278 | 1.6 | 1.6 | 0.03 | 0.03 | 0.03 | 72 | 1019.1 |
| 20260507112333 | 19 | 278 | 1.6 | 3.2 | 0.03 | 0.03 | 0.03 | 72 | 1019.2 |
| 20260507111827 | 19 | 278 | 1.6 | 3.2 | 0.03 | 0.03 | 0.03 | 72 | 1019.2 |
| 20260507111322 | 19 | 278 | 0.0 | 1.6 | 0.03 | 0.03 | 0.03 | 73 | 1019.3 |
| 20260507110816 | 19 | 278 | 0.0 | 1.6 | 0.03 | 0.03 | 0.03 | 74 | 1019.3 |
| 20260507110800 | 19 | 278 | 0.0 | 0.0 | 0.03 | 0.03 | 0.03 | 73 | 1019.2 |
| 20260507105812 | 19 | 278 | 0.0 | 3.2 | 0.03 | 0.03 | 0.03 | 73 | 1019.2 |
| 20260507105312 | 19 | 278 | 0.0 | 3.2 | 0.03 | 0.03 | 0.03 | 71 | 1019.1 |
| 20260507104812 | 19 | 278 | 0.0 | 0.0 | 0.00 | 0.00 | 0.00 | 72 | 1019.1 |
| 20260507104312 | 19 | 278 | 0.0 | 1.6 | 0.00 | 0.00 | 0.00 | 71 | 1019.1 |
| 20260507104034 | 19 | 277 | 0.0 | 1.6 | 0.00 | 0.00 | 0.00 | 71 | 1019.1 |
| 20260507103312 | 19 | 274 | 0.0 | 3.2 | 0.00 | 0.00 | 0.00 | 71 | 1019.1 |
| 20260507102810 | 19 | 274 | 1.6 | 3.2 | 0.00 | 0.00 | 0.00 | 69 | 1019.1 |
| 20260507102753 | 19 | 274 | 1.6 | 4.8 | 0.00 | 0.00 | 0.00 | 69 | 1019.2 |
| 20260507101806 | 19 | 274 | 1.6 | 4.8 | 0.00 | 0.00 | 0.00 | 70 | 1019.1 |
| 20260507101753 | 19 | 274 | 1.6 | 4.8 | 0.00 | 0.00 | 0.00 | 71 | 1019.0 |
| 20260507100804 | 19 | 278 | 1.6 | 4.8 | 0.00 | 0.00 | 0.00 | 71 | 1019.1 |
| 20260507100302 | 19 | 233 | 3.2 | 8.0 | 0.00 | 0.00 | 0.00 | 72 | 1019.2 |
| 20260507095802 | 19 | 248 | 4.8 | 9.7 | 0.00 | 0.00 | 0.00 | 72 | 1019.1 |
| 20260507095305 | 19 | 243 | 4.8 | 9.7 | 0.00 | 0.00 | 0.00 | 70 | 1019.2 |
| 20260507094802 | 19 | 271 | 3.2 | 6.4 | 0.00 | 0.00 | 0.00 | 69 | 1019.1 |
| 20260507094302 | 19 | 270 | 3.2 | 8.0 | 0.00 | 0.00 | 0.00 | 68 | 1018.9 |
| 20260507094021 | 19 | 269 | 3.2 | 8.0 | 0.00 | 0.00 | 0.00 | 68 | 1018.8 |
| 20260507093256 | 19 | 269 | 3.2 | 6.4 | 0.00 | 0.00 | 0.00 | 65 | 1018.8 |
| 20260507092754 | 19 | 269 | 3.2 | 6.4 | 0.00 | 0.00 | 0.00 | 64 | 1018.7 |
| 20260507092254 | 20 | 269 | 1.6 | 4.8 | 0.00 | 0.00 | 0.00 | 64 | 1018.5 |
| 20260507091751 | 20 | 269 | 1.6 | 3.2 | 0.00 | 0.00 | 0.00 | 65 | 1018.4 |
| 20260507091510 | 19 | 269 | 1.6 | 3.2 | 0.00 | 0.00 | 0.00 | 66 | 1018.3 |
| 20260507090748 | 19 | 269 | 1.6 | 4.8 | 0.00 | 0.00 | 0.00 | 66 | 1018.2 |
| 20260507090246 | 19 | 269 | 3.2 | 6.4 | 0.00 | 0.00 | 0.00 | 67 | 1018.2 |
| 20260507090014 | 19 | 269 | 1.6 | 6.4 | 0.00 | 0.00 | 0.00 | 67 | 1018.2 |
| 20260507085245 | 19 | 269 | 1.6 | 3.2 | 0.00 | 0.00 | 0.00 | 65 | 1018.1 |
| 20260507085007 | 19 | 269 | 1.6 | 4.8 | 0.00 | 0.00 | 0.00 | 63 | 1018.2 |
| 20260507084501 | 19 | 269 | 3.2 | 6.4 | 0.00 | 0.00 | 0.00 | 62 | 1018.1 |
| 20260507083740 | 19 | 269 | 1.6 | 6.4 | 0.00 | 0.00 | 0.00 | 61 | 1018.1 |
| 20260507083237 | 19 | 281 | 1.6 | 6.4 | 0.00 | 0.00 | 0.00 | 63 | 1018.0 |
| 20260507082737 | 19 | 281 | 1.6 | 6.4 | 0.00 | 0.00 | 0.00 | 65 | 1017.9 |
| 20260507082236 | 19 | 264 | 1.6 | 3.2 | 0.00 | 0.00 | 0.00 | 66 | 1017.9 |
| 20260507081736 | 19 | 263 | 1.6 | 3.2 | 0.00 | 0.00 | 0.00 | 68 | 1017.9 |
| 20260507081234 | 18 | 263 | 1.6 | 4.8 | 0.00 | 0.00 | 0.00 | 69 | 1017.9 |
| 20260507080732 | 18 | 263 | 3.2 | 6.4 | 0.00 | 0.00 | 0.00 | 68 | 1017.8 |
| 20260507080452 | 18 | 255 | 4.8 | 8.0 | 0.00 | 0.00 | 0.00 | 72 | 1017.7 |
| 20260507075728 | 18 | 250 | 4.8 | 8.0 | 0.00 | 0.00 | 0.00 | 72 | 1017.7 |
| 20260507075229 | 18 | 231 | 3.2 | 8.0 | 0.00 | 0.00 | 0.00 | 71 | 1017.6 |
| 20260507074728 | 19 | 278 | 1.6 | 4.8 | 0.00 | 0.00 | 0.00 | 70 | 1017.5 |
| 20260507074229 | 18 | 283 | 1.6 | 3.2 | 0.00 | 0.00 | 0.00 | 70 | 1017.4 |
| 20260507073728 | 18 | 290 | 0.0 | 0.0 | 0.00 | 0.00 | 0.00 | 70 | 1017.4 |
| 20260507073228 | 18 | 290 | 0.0 | 0.0 | 0.00 | 0.00 | 0.00 | 72 | 1017.2 |
| 20260507072728 | 18 | 290 | 0.0 | 3.2 | 0.00 | 0.00 | 0.00 | 73 | 1017.3 |
| 20260507072456 | 18 | 290 | 1.6 | 6.4 | 0.00 | 0.00 | 0.00 | 72 | 1017.3 |
| 20260507071954 | 18 | 290 | 3.2 | 6.4 | 0.00 | 0.00 | 0.00 | 71 | 1017.3 |
| 20260507071226 | 18 | 304 | 1.6 | 6.4 | 0.00 | 0.00 | 0.00 | 71 | 1017.3 |
| 20260507070724 | 18 | 319 | 1.6 | 4.8 | 0.00 | 0.00 | 0.00 | 71 | 1017.3 |
| 20260507070227 | 18 | 10 | 1.6 | 4.8 | 0.00 | 0.00 | 0.00 | 72 | 1017.2 |
| 20260507065724 | 18 | 282 | 1.6 | 4.8 | 0.00 | 0.00 | 0.00 | 73 | 1017.2 |
| 20260507065449 | 18 | 282 | 3.2 | 4.8 | 0.00 | 0.00 | 0.00 | 73 | 1017.4 |
| 20260507065213 | 18 | 266 | 3.2 | 6.4 | 0.00 | 0.00 | 0.00 | 72 | 1017.5 |
| 20260507064226 | 18 | 254 | 3.2 | 6.4 | 0.00 | 0.00 | 0.00 | 72 | 1017.5 |
| 20260507063723 | 18 | 238 | 3.2 | 8.0 | 0.00 | 0.00 | 0.00 | 72 | 1017.5 |
| 20260507063223 | 18 | 287 | 3.2 | 8.0 | 0.00 | 0.00 | 0.00 | 71 | 1017.5 |
| 20260507062715 | 18 | 249 | 4.8 | 11.3 | 0.00 | 0.00 | 0.00 | 71 | 1017.5 |
| 20260507062208 | 18 | 252 | 4.8 | 11.3 | 0.00 | 0.00 | 0.00 | 71 | 1017.6 |
| 20260507061702 | 18 | 278 | 3.2 | 6.4 | 0.00 | 0.00 | 0.00 | 70 | 1017.5 |
| 20260507061157 | 18 | 269 | 3.2 | 8.0 | 0.00 | 0.00 | 0.00 | 71 | 1017.3 |
| 20260507060651 | 18 | 211 | 3.2 | 8.0 | 0.00 | 0.00 | 0.00 | 70 | 1017.3 |
| 20260507060406 | 18 | 262 | 3.2 | 6.4 | 0.00 | 0.00 | 0.00 | 70 | 1017.2 |
| 20260507055638 | 18 | 214 | 1.6 | 6.4 | 0.00 | 0.00 | 0.00 | 70 | 1017.2 |
| 20260507055355 | 18 | 304 | 1.6 | 4.8 | 0.00 | 0.00 | 0.00 | 70 | 1017.0 |
| 20260507054626 | 18 | 304 | 1.6 | 3.2 | 0.00 | 0.00 | 0.00 | 70 | 1017.0 |
| 20260507054121 | 18 | 304 | 1.6 | 4.8 | 0.00 | 0.00 | 0.00 | 71 | 1017.1 |
| 20260507053615 | 18 | 304 | 1.6 | 4.8 | 0.00 | 0.00 | 0.00 | 70 | 1017.0 |
| 20260507053107 | 18 | 304 | 1.6 | 3.2 | 0.00 | 0.00 | 0.00 | 67 | 1017.0 |
| 20260507052602 | 18 | 304 | 0.0 | 3.2 | 0.00 | 0.00 | 0.00 | 67 | 1017.0 |
| 20260507052100 | 19 | 304 | 0.0 | 3.2 | 0.00 | 0.00 | 0.00 | 65 | 1016.9 |
| 20260507051820 | 19 | 304 | 0.0 | 0.0 | 0.00 | 0.00 | 0.00 | 67 | 1016.7 |
| 20260507051059 | 18 | 304 | 0.0 | 0.0 | 0.00 | 0.00 | 0.00 | 68 | 1016.6 |
| 20260507050559 | 18 | 304 | 0.0 | 1.6 | 0.00 | 0.00 | 0.00 | 69 | 1016.7 |
| 20260507050322 | 17 | 304 | 0.0 | 1.6 | 0.00 | 0.00 | 0.00 | 70 | 1016.9 |
| 20260507045556 | 17 | 304 | 0.0 | 1.6 | 0.00 | 0.00 | 0.00 | 69 | 1016.7 |
| 20260507045055 | 17 | 304 | 0.0 | 1.6 | 0.00 | 0.00 | 0.00 | 70 | 1016.9 |
| 20260507044555 | 17 | 304 | 0.0 | 3.2 | 0.00 | 0.00 | 0.00 | 71 | 1016.6 |
| 20260507044314 | 17 | 304 | 0.0 | 3.2 | 0.00 | 0.00 | 0.00 | 72 | 1016.6 |
| 20260507043551 | 17 | 304 | 0.0 | 1.6 | 0.00 | 0.00 | 0.00 | 73 | 1016.6 |
| 20260507043052 | 17 | 304 | 0.0 | 1.6 | 0.00 | 0.00 | 0.00 | 74 | 1016.6 |
| 20260507042551 | 17 | 304 | 0.0 | 1.6 | 0.00 | 0.00 | 0.00 | 74 | 1016.7 |
| 20260507042050 | 17 | 304 | 0.0 | 0.0 | 0.00 | 0.00 | 0.00 | 76 | 1016.7 |
| 20260507041547 | 16 | 304 | 0.0 | 1.6 | 0.00 | 0.00 | 0.00 | 77 | 1016.6 |
| 20260507041048 | 16 | 304 | 0.0 | 1.6 | 0.00 | 0.00 | 0.00 | 77 | 1016.6 |
| 20260507040547 | 16 | 304 | 0.0 | 1.6 | 0.00 | 0.00 | 0.00 | 78 | 1016.5 |
| 20260507040046 | 16 | 304 | 0.0 | 0.0 | 0.00 | 0.00 | 0.00 | 78 | 1016.5 |
| 20260507035546 | 16 | 304 | 0.0 | 3.2 | 0.00 | 0.00 | 0.00 | 78 | 1016.5 |
| 20260507035045 | 16 | 304 | 0.0 | 3.2 | 0.00 | 0.00 | 0.00 | 79 | 1016.4 |
| 20260507034539 | 15 | 304 | 1.6 | 4.8 | 0.00 | 0.00 | 0.00 | 80 | 1016.3 |
| 20260507034033 | 15 | 304 | 3.2 | 4.8 | 0.00 | 0.00 | 0.00 | 80 | 1016.3 |
| 20260507033527 | 15 | 304 | 3.2 | 4.8 | 0.00 | 0.00 | 0.00 | 80 | 1016.2 |
| 20260507033020 | 15 | 304 | 1.6 | 4.8 | 0.00 | 0.00 | 0.00 | 80 | 1016.2 |
| 20260507032515 | 15 | 304 | 0.0 | 1.6 | 0.00 | 0.00 | 0.00 | 79 | 1016.1 |
| 20260507032231 | 15 | 304 | 0.0 | 1.6 | 0.00 | 0.00 | 0.00 | 78 | 1016.2 |
| 20260507031502 | 16 | 304 | 0.0 | 1.6 | 0.00 | 0.00 | 0.00 | 78 | 1016.2 |
| 20260507030957 | 16 | 304 | 0.0 | 0.0 | 0.00 | 0.00 | 0.00 | 78 | 1016.2 |
| 20260507030452 | 16 | 304 | 0.0 | 0.0 | 0.00 | 0.00 | 0.00 | 78 | 1016.2 |
| 20260507030203 | 16 | 304 | 0.0 | 0.0 | 0.00 | 0.00 | 0.00 | 78 | 1016.1 |
| 20260507025440 | 16 | 304 | 0.0 | 0.0 | 0.00 | 0.00 | 0.00 | 78 | 1016.1 |
| 20260507024933 | 16 | 304 | 0.0 | 0.0 | 0.00 | 0.00 | 0.00 | 78 | 1016.1 |
| 20260507024653 | 16 | 304 | 0.0 | 0.0 | 0.00 | 0.00 | 0.00 | 78 | 1016.0 |
| 20260507023920 | 16 | 304 | 0.0 | 0.0 | 0.00 | 0.00 | 0.00 | 78 | 1016.0 |
| 20260507023415 | 16 | 304 | 0.0 | 0.0 | 0.00 | 0.00 | 0.00 | 78 | 1016.0 |
| 20260507022909 | 16 | 304 | 0.0 | 1.6 | 0.00 | 0.00 | 0.00 | 77 | 1015.9 |
| 20260507022623 | 16 | 304 | 1.6 | 3.2 | 0.00 | 0.00 | 0.00 | 77 | 1015.8 |
| 20260507022120 | 16 | 304 | 0.0 | 3.2 | 0.00 | 0.00 | 0.00 | 77 | 1015.7 |
| 20260507021351 | 16 | 304 | 0.0 | 1.6 | 0.00 | 0.00 | 0.00 | 78 | 1015.8 |
| 20260507020845 | 16 | 304 | 0.0 | 1.6 | 0.00 | 0.00 | 0.00 | 77 | 1015.9 |
| 20260507020338 | 16 | 304 | 0.0 | 1.6 | 0.00 | 0.00 | 0.00 | 77 | 1016.0 |
| 20260507015833 | 16 | 304 | 0.0 | 3.2 | 0.00 | 0.00 | 0.00 | 78 | 1015.9 |
| 20260507015326 | 16 | 304 | 0.0 | 3.2 | 0.00 | 0.00 | 0.00 | 78 | 1015.7 |
| 20260507015048 | 16 | 304 | 0.0 | 1.6 | 0.00 | 0.00 | 0.00 | 78 | 1015.7 |
| 20260507014314 | 16 | 304 | 0.0 | 1.6 | 0.00 | 0.00 | 0.00 | 78 | 1015.8 |
| 20260507013809 | 16 | 304 | 0.0 | 3.2 | 0.00 | 0.00 | 0.00 | 78 | 1015.7 |
| 20260507013303 | 16 | 304 | 1.6 | 3.2 | 0.00 | 0.00 | 0.00 | 78 | 1015.7 |
| 20260507012757 | 16 | 304 | 1.6 | 3.2 | 0.00 | 0.00 | 0.00 | 79 | 1015.7 |
| 20260507012251 | 16 | 304 | 1.6 | 4.8 | 0.00 | 0.00 | 0.00 | 81 | 1015.7 |
| 20260507011745 | 16 | 304 | 1.6 | 4.8 | 0.00 | 0.00 | 0.00 | 81 | 1015.7 |
| 20260507011239 | 16 | 304 | 1.6 | 4.8 | 0.00 | 0.00 | 0.00 | 81 | 1015.6 |
| 20260507010732 | 16 | 304 | 3.2 | 4.8 | 0.00 | 0.00 | 0.00 | 81 | 1015.6 |
| 20260507010227 | 16 | 304 | 1.6 | 3.2 | 0.00 | 0.00 | 0.00 | 81 | 1015.6 |
| 20260507005720 | 16 | 304 | 3.2 | 6.4 | 0.00 | 0.00 | 0.00 | 80 | 1015.6 |
| 20260507005214 | 16 | 304 | 3.2 | 6.4 | 0.00 | 0.00 | 0.00 | 80 | 1015.6 |
| 20260507004710 | 16 | 305 | 1.6 | 4.8 | 0.00 | 0.00 | 0.00 | 79 | 1015.6 |
| 20260507004206 | 16 | 305 | 0.0 | 3.2 | 0.00 | 0.00 | 0.00 | 78 | 1015.4 |
| 20260507003657 | 16 | 305 | 0.0 | 0.0 | 0.00 | 0.00 | 0.00 | 77 | 1015.3 |
| 20260507003151 | 16 | 305 | 0.0 | 0.0 | 0.00 | 0.00 | 0.00 | 77 | 1015.3 |
| 20260507002645 | 16 | 305 | 0.0 | 0.0 | 0.00 | 0.00 | 0.00 | 77 | 1015.3 |
| 20260507002409 | 16 | 305 | 0.0 | 3.2 | 0.00 | 0.00 | 0.00 | 77 | 1015.3 |
| 20260507001633 | 16 | 305 | 0.0 | 3.2 | 0.00 | 0.00 | 0.00 | 77 | 1015.3 |
| 20260507001126 | 16 | 305 | 0.0 | 3.2 | 0.00 | 0.00 | 0.00 | 77 | 1015.3 |
| 20260507000621 | 16 | 305 | 1.6 | 3.2 | 0.00 | 0.00 | 0.00 | 77 | 1015.3 |
| 20260507000115 | 16 | 305 | 1.6 | 4.8 | 0.00 | 0.00 | 0.00 | 78 | 1015.4 |
| 20260506235608 | 17 | 305 | 1.6 | 4.8 | 0.00 | 0.00 | 0.00 | 80 | 1015.5 |
| 20260506235328 | 17 | 305 | 1.6 | 4.8 | 0.00 | 0.00 | 0.00 | 81 | 1015.6 |
| 20260506234557 | 17 | 305 | 3.2 | 6.4 | 0.00 | 0.00 | 0.00 | 82 | 1015.6 |
| 20260506234051 | 17 | 305 | 3.2 | 6.4 | 0.00 | 0.00 | 0.00 | 82 | 1015.7 |
| 20260506233545 | 17 | 304 | 3.2 | 6.4 | 0.00 | 0.00 | 0.00 | 82 | 1015.8 |
| 20260506233045 | 17 | 305 | 1.6 | 4.8 | 0.00 | 0.00 | 0.00 | 82 | 1015.8 |
| 20260506232543 | 17 | 305 | 1.6 | 4.8 | 0.00 | 0.00 | 0.00 | 82 | 1015.8 |
| 20260506232041 | 17 | 305 | 1.6 | 4.8 | 0.00 | 0.00 | 0.00 | 82 | 1015.7 |
| 20260506231538 | 17 | 305 | 1.6 | 4.8 | 0.00 | 0.00 | 0.00 | 82 | 1015.8 |
| 20260506231258 | 17 | 305 | 1.6 | 4.8 | 0.00 | 0.00 | 0.00 | 82 | 1015.7 |
| 20260506230758 | 17 | 305 | 1.6 | 4.8 | 0.00 | 0.00 | 0.00 | 82 | 1015.7 |
| 20260506230303 | 17 | 305 | 1.6 | 3.2 | 0.00 | 0.00 | 0.00 | 82 | 1015.7 |
| 20260506225535 | 17 | 305 | 3.2 | 4.8 | 0.00 | 0.00 | 0.00 | 82 | 1015.7 |
| 20260506225035 | 17 | 305 | 3.2 | 4.8 | 0.00 | 0.00 | 0.00 | 82 | 1015.8 |
| 20260506224534 | 17 | 305 | 1.6 | 4.8 | 0.00 | 0.00 | 0.00 | 82 | 1015.9 |
| 20260506224033 | 17 | 305 | 1.6 | 4.8 | 0.00 | 0.00 | 0.00 | 82 | 1015.8 |
| 20260506223530 | 17 | 305 | 1.6 | 4.8 | 0.00 | 0.00 | 0.00 | 82 | 1015.8 |
| 20260506223030 | 17 | 305 | 1.6 | 4.8 | 0.00 | 0.00 | 0.00 | 82 | 1015.7 |
| 20260506222531 | 17 | 305 | 1.6 | 4.8 | 0.00 | 0.00 | 0.00 | 82 | 1015.8 |
| 20260506222030 | 17 | 305 | 1.6 | 4.8 | 0.00 | 0.00 | 0.00 | 82 | 1015.8 |
| 20260506221529 | 17 | 305 | 1.6 | 6.4 | 0.00 | 0.00 | 0.00 | 83 | 1015.8 |
| 20260506221029 | 17 | 305 | 1.6 | 6.4 | 0.00 | 0.00 | 0.00 | 83 | 1015.8 |
| 20260506220528 | 17 | 305 | 1.6 | 4.8 | 0.00 | 0.00 | 0.00 | 83 | 1015.7 |
| 20260506220028 | 17 | 305 | 3.2 | 6.4 | 0.00 | 0.00 | 0.00 | 84 | 1015.7 |
| 20260506215528 | 17 | 305 | 3.2 | 6.4 | 0.00 | 0.00 | 0.00 | 84 | 1015.8 |
| 20260506215028 | 17 | 305 | 3.2 | 6.4 | 0.00 | 0.00 | 0.00 | 84 | 1015.8 |
| 20260506214529 | 17 | 305 | 3.2 | 4.8 | 0.00 | 0.00 | 0.00 | 84 | 1015.7 |
| 20260506214029 | 17 | 305 | 3.2 | 8.0 | 0.00 | 0.00 | 0.00 | 84 | 1015.8 |
| 20260506213529 | 17 | 305 | 3.2 | 8.0 | 0.00 | 0.00 | 0.00 | 84 | 1015.9 |
| 20260506213029 | 17 | 305 | 3.2 | 6.4 | 0.00 | 0.00 | 0.00 | 85 | 1015.8 |
| 20260506212751 | 17 | 305 | 4.8 | 8.0 | 0.00 | 0.00 | 0.00 | 85 | 1015.8 |
| 20260506212028 | 17 | 305 | 4.8 | 8.0 | 0.00 | 0.00 | 0.00 | 85 | 1015.9 |
| 20260506211529 | 17 | 305 | 3.2 | 8.0 | 0.00 | 0.00 | 0.00 | 85 | 1015.9 |
| 20260506211029 | 17 | 305 | 3.2 | 8.0 | 0.00 | 0.00 | 0.00 | 85 | 1015.9 |
| 20260506210528 | 17 | 299 | 4.8 | 8.0 | 0.00 | 0.00 | 0.00 | 85 | 1015.9 |
| 20260506210029 | 17 | 303 | 4.8 | 9.7 | 0.00 | 0.00 | 0.00 | 85 | 1015.9 |
| 20260506205527 | 17 | 297 | 4.8 | 9.7 | 0.00 | 0.00 | 0.00 | 84 | 1016.1 |
| 20260506205027 | 17 | 273 | 3.2 | 8.0 | 0.00 | 0.00 | 0.00 | 84 | 1016.1 |
| 20260506204527 | 17 | 273 | 3.2 | 6.4 | 0.00 | 0.00 | 0.00 | 83 | 1016.0 |
| 20260506204024 | 17 | 273 | 3.2 | 6.4 | 0.00 | 0.00 | 0.00 | 83 | 1016.0 |
| 20260506203525 | 17 | 273 | 3.2 | 6.4 | 0.00 | 0.00 | 0.00 | 83 | 1015.9 |
| 20260506203019 | 17 | 273 | 1.6 | 4.8 | 0.00 | 0.00 | 0.00 | 83 | 1015.8 |
| 20260506202513 | 17 | 273 | 3.2 | 8.0 | 0.00 | 0.00 | 0.00 | 83 | 1015.8 |
| 20260506202013 | 17 | 273 | 3.2 | 8.0 | 0.00 | 0.00 | 0.00 | 83 | 1015.8 |
| 20260506201732 | 17 | 308 | 3.2 | 6.4 | 0.00 | 0.00 | 0.00 | 83 | 1015.7 |
| 20260506201012 | 17 | 301 | 1.6 | 6.4 | 0.00 | 0.00 | 0.00 | 83 | 1015.7 |
| 20260506200512 | 17 | 254 | 1.6 | 3.2 | 0.00 | 0.00 | 0.00 | 83 | 1015.7 |
| 20260506200013 | 17 | 253 | 1.6 | 6.4 | 0.00 | 0.00 | 0.00 | 82 | 1015.7 |
| 20260506195513 | 17 | 264 | 1.6 | 6.4 | 0.00 | 0.00 | 0.00 | 82 | 1015.8 |
| 20260506195013 | 17 | 259 | 1.6 | 4.8 | 0.00 | 0.00 | 0.00 | 83 | 1015.6 |
| 20260506194512 | 17 | 258 | 1.6 | 3.2 | 0.00 | 0.00 | 0.00 | 83 | 1015.5 |
| 20260506194012 | 17 | 258 | 1.6 | 3.2 | 0.00 | 0.00 | 0.00 | 82 | 1015.4 |
| 20260506193512 | 17 | 258 | 1.6 | 3.2 | 0.00 | 0.00 | 0.00 | 82 | 1015.4 |
| 20260506193013 | 17 | 258 | 1.6 | 3.2 | 0.00 | 0.00 | 0.00 | 82 | 1015.4 |
| 20260506192513 | 17 | 226 | 1.6 | 3.2 | 0.00 | 0.00 | 0.00 | 82 | 1015.4 |
| 20260506192012 | 17 | 226 | 1.6 | 3.2 | 0.00 | 0.00 | 0.00 | 82 | 1015.3 |
| 20260506191512 | 17 | 226 | 1.6 | 3.2 | 0.00 | 0.00 | 0.00 | 82 | 1015.3 |
| 20260506191013 | 17 | 226 | 1.6 | 3.2 | 0.00 | 0.00 | 0.00 | 81 | 1015.3 |
| 20260506190738 | 17 | 220 | 0.0 | 3.2 | 0.00 | 0.00 | 0.00 | 82 | 1015.3 |
| 20260506190013 | 17 | 220 | 1.6 | 4.8 | 0.00 | 0.00 | 0.00 | 81 | 1015.3 |
| 20260506185513 | 18 | 220 | 1.6 | 4.8 | 0.00 | 0.00 | 0.00 | 81 | 1015.2 |
| 20260506185013 | 18 | 221 | 0.0 | 3.2 | 0.00 | 0.00 | 0.00 | 81 | 1015.2 |
| 20260506184512 | 18 | 221 | 0.0 | 3.2 | 0.00 | 0.00 | 0.00 | 82 | 1015.1 |
| 20260506184013 | 18 | 221 | 0.0 | 3.2 | 0.00 | 0.00 | 0.00 | 81 | 1015.1 |
| 20260506183512 | 18 | 97 | 1.6 | 4.8 | 0.00 | 0.00 | 0.00 | 82 | 1015.0 |
| 20260506183012 | 18 | 97 | 0.0 | 4.8 | 0.00 | 0.00 | 0.00 | 82 | 1015.0 |
| 20260506182513 | 18 | 197 | 0.0 | 4.8 | 0.00 | 0.00 | 0.00 | 82 | 1014.9 |
| 20260506182012 | 18 | 198 | 1.6 | 4.8 | 0.00 | 0.00 | 0.00 | 81 | 1014.9 |
| 20260506181512 | 18 | 160 | 1.6 | 4.8 | 0.00 | 0.00 | 0.00 | 81 | 1014.8 |
| 20260506181012 | 18 | 150 | 3.2 | 4.8 | 0.00 | 0.00 | 0.00 | 81 | 1014.8 |
| 20260506180512 | 18 | 153 | 1.6 | 4.8 | 0.00 | 0.00 | 0.00 | 81 | 1014.7 |
| 20260506180012 | 18 | 103 | 1.6 | 8.0 | 0.00 | 0.00 | 0.00 | 81 | 1014.6 |
| 20260506175734 | 18 | 103 | 1.6 | 8.0 | 0.00 | 0.00 | 0.00 | 81 | 1014.5 |
| 20260506175010 | 18 | 123 | 1.6 | 8.0 | 0.00 | 0.00 | 0.00 | 81 | 1014.5 |
| 20260506174728 | 18 | 216 | 3.2 | 9.7 | 0.00 | 0.00 | 0.00 | 80 | 1014.4 |
| 20260506173957 | 18 | 140 | 3.2 | 11.3 | 0.00 | 0.00 | 0.00 | 80 | 1014.3 |
| 20260506173452 | 18 | 160 | 1.6 | 11.3 | 0.00 | 0.00 | 0.00 | 79 | 1014.3 |
| 20260506172945 | 18 | 205 | 1.6 | 11.3 | 0.00 | 0.00 | 0.00 | 79 | 1014.3 |
| 20260506172440 | 19 | 205 | 4.8 | 11.3 | 0.00 | 0.00 | 0.00 | 78 | 1014.3 |
| 20260506171933 | 19 | 95 | 4.8 | 11.3 | 0.00 | 0.00 | 0.00 | 77 | 1014.2 |
| 20260506171427 | 19 | 141 | 3.2 | 11.3 | 0.00 | 0.00 | 0.00 | 75 | 1014.2 |
| 20260506170925 | 20 | 141 | 4.8 | 11.3 | 0.00 | 0.00 | 0.00 | 75 | 1014.2 |
| 20260506170425 | 20 | 217 | 6.4 | 11.3 | 0.00 | 0.00 | 0.00 | 73 | 1014.1 |
| 20260506165924 | 20 | 174 | 6.4 | 11.3 | 0.00 | 0.00 | 0.00 | 72 | 1014.1 |
| 20260506165422 | 20 | 148 | 6.4 | 16.1 | 0.00 | 0.00 | 0.00 | 71 | 1014.1 |
| 20260506164923 | 21 | 220 | 4.8 | 16.1 | 0.00 | 0.00 | 0.00 | 70 | 1014.1 |
| 20260506164423 | 21 | 162 | 4.8 | 12.9 | 0.00 | 0.00 | 0.00 | 70 | 1014.1 |
| 20260506163920 | 21 | 234 | 6.4 | 12.9 | 0.00 | 0.00 | 0.00 | 69 | 1014.1 |
| 20260506163420 | 21 | 207 | 6.4 | 16.1 | 0.00 | 0.00 | 0.00 | 69 | 1014.1 |
| 20260506162921 | 21 | 224 | 8.0 | 20.9 | 0.00 | 0.00 | 0.00 | 69 | 1014.1 |
| 20260506162419 | 21 | 198 | 8.0 | 20.9 | 0.00 | 0.00 | 0.00 | 69 | 1014.1 |
| 20260506161919 | 21 | 224 | 4.8 | 16.1 | 0.00 | 0.00 | 0.00 | 66 | 1014.1 |